Wind_Speed
33 33 33 33 32 33 33 32 32 31 31 31 32 32 32 33 33 33 34 33 33 34 34 35 35 35 35 37 37 38 40 42 43 44 44 44 44 45 46 46 46 47 48 48
34 33 34 33 32 33 33 33 33 32 31 31 32 31 32 33 34 35 34 34 34 34 34 35 35 35 35 37 37 38 40 43 43 43 44 44 44 45 45 45 46 47 48 49
34 33 33 33 32 32 32 32 32 33 33 33 33 32 32 32 33 34 34 34 34 33 33 34 34 35 35 36 37 38 40 42 42 43 43 43 43 43 44 44 45 47 48 48
33 32 32 32 31 32 32 32 32 32 33 33 33 33 32 32 32 33 33 34 33 32 33 34 34 34 35 35 36 37 39 40 41 42 42 42 42 42 42 43 44 45 46 46
32 32 31 30 31 31 32 31 31 31 32 32 32 33 33 32 32 32 31 32 32 32 32 33 33 33 34 35 35 36 37 39 40 41 41 40 40 40 41 42 42 42 43 43
32 32 31 30 30 31 32 32 31 31 31 32 32 32 32 32 31 30 29 30 30 31 31 31 31 33 33 34 34 35 35 36 37 38 39 39 39 39 40 40 40 40 41 41
31 32 32 31 30 31 31 31 31 31 31 31 32 32 31 31 30 29 29 28 28 28 29 29 30 30 31 31 32 32 32 33 35 36 37 37 37 38 39 39 39 39 40 41
31 31 31 30 30 30 31 31 31 31 31 31 31 31 30 29 28 28 28 28 27 27 27 27 28 29 29 29 29 30 30 31 33 34 35 36 36 37 37 38 38 38 39 40
30 30 30 29 29 30 30 30 31 30 31 31 31 30 30 29 28 28 29 28 27 26 26 25 25 26 27 27 27 28 28 29 31 33 33 34 35 35 36 37 37 37 38 39
29 29 29 28 28 28 28 28 29 29 30 30 30 30 30 30 29 29 29 28 27 26 25 25 24 24 24 24 25 26 27 28 30 31 31 32 33 34 35 35 35 35 36 38
29 28 28 28 27 27 26 27 27 28 28 29 30 29 30 30 29 29 29 28 27 26 25 24 24 24 24 24 25 25 25 26 27 29 30 31 32 32 33 34 34 34 35 37
28 28 27 26 26 25 25 25 25 25 27 28 28 28 28 28 28 28 28 27 27 26 25 24 24 24 23 23 24 24 25 26 27 27 28 30 31 32 32 34 34 33 34 35
27 26 25 25 24 24 24 25 25 26 26 26 25 26 26 26 26 26 26 26 26 26 25 25 24 24 24 22 22 23 24 25 26 27 27 28 28 30 31 32 33 32 33 34
26 25 24 24 24 25 25 25 26 26 26 25 24 24 25 25 25 25 25 25 25 24 24 24 24 24 23 23 22 22 23 24 24 25 25 26 26 28 29 29 30 32 32 33
25 25 25 25 25 25 25 25 26 26 25 25 24 24 24 24 24 23 23 24 24 24 24 24 24 23 23 22 22 22 22 22 23 23 23 24 25 26 28 29 29 30 31 31
24 24 24 25 25 25 25 25 25 25 24 24 23 23 23 23 23 23 22 23 23 23 23 24 24 24 23 22 22 22 23 22 22 23 23 24 24 26 27 28 29 30 31 31
23 23 23 24 24 24 24 24 24 24 24 23 23 23 22 22 22 22 23 23 23 23 23 23 23 23 23 23 23 23 23 23 23 23 24 25 25 25 26 27 27 28 29 30
23 23 23 23 23 23 23 24 24 24 24 23 23 22 22 22 22 22 23 23 23 23 24 23 23 23 23 24 24 24 24 24 25 25 25 25 26 26 26 27 27 28 28 29
24 24 24 24 23 24 24 23 23 23 23 23 23 23 22 22 23 22 22 22 22 23 23 23 23 23 23 23 24 24 25 25 25 25 26 26 27 28 28 28 28 28 28 28
24 24 24 24 24 24 24 24 23 23 23 24 24 23 23 23 23 22 22 23 23 23 23 23 23 23 23 24 24 24 25 25 25 25 26 26 26 28 28 29 29 29 29 29
25 25 25 25 24 24 24 24 24 24 23 24 24 24 24 23 23 22 22 23 23 23 23 22 23 23 23 24 24 25 26 26 26 26 26 26 26 27 27 29 29 30 30 30
24 24 24 24 24 24 24 24 24 24 23 23 23 23 22 22 22 22 22 22 22 22 22 22 22 21 22 23 23 24 25 26 26 26 26 26 27 27 27 28 29 30 30 31
23 23 24 24 24 24 24 24 24 23 22 22 22 21 21 21 21 20 20 20 20 20 20 20 20 20 20 21 22 23 23 24 25 25 26 26 27 27 27 27 28 29 30 30
23 23 23 23 23 23 23 22 22 21 21 20 20 20 19 19 19 18 18 18 18 18 18 18 18 19 20 20 21 22 23 23 24 25 25 25 26 26 27 27 27 27 28 29
23 24 24 23 23 22 21 21 20 19 19 18 18 18 18 18 18 17 17 17 17 17 17 17 18 18 19 20 20 21 22 23 23 23 24 24 25 25 26 26 27 27 27 28
24 24 24 23 22 21 21 20 19 19 18 18 18 17 17 17 17 17 17 17 17 17 17 17 17 18 19 19 20 20 21 22 22 23 24 24 24 25 26 26 26 26 26 27
24 24 23 22 21 20 20 20 19 19 18 18 18 18 17 17 17 17 17 17 17 18 18 17 17 17 18 18 19 20 20 21 22 22 23 23 24 24 24 24 24 25 25 25
Wind_Direction
290 289 288 286 286 286 285 284 283 282 280 278 277 277 274 272 272 273 274 271 271 271 270 267 264 262 259 257 255 255 252 249 246 244 245 245 245 245 245 245 243 242 243 243
289 288 287 286 285 285 285 284 283 281 279 279 278 277 276 276 275 274 273 272 272 271 271 268 264 261 260 257 254 255 252 248 246 245 245 247 247 247 246 246 244 244 244 244
290 289 288 287 286 286 286 284 283 282 280 278 278 279 278 277 277 276 274 273 272 272 271 268 265 262 260 258 254 254 252 248 247 246 246 247 248 247 246 246 245 245 246 247
293 292 290 291 289 287 285 285 284 283 280 279 279 280 280 280 280 279 278 275 274 272 270 268 266 263 260 259 256 253 251 249 247 246 246 247 248 247 246 246 246 247 247 246
293 294 293 292 292 291 288 286 284 282 281 279 279 280 280 280 281 281 279 277 275 273 271 268 266 263 260 260 257 254 252 250 248 245 246 247 247 247 247 246 247 247 246 246
292 292 294 295 293 292 291 288 286 283 282 281 280 280 280 280 280 281 279 277 277 274 271 269 266 264 262 261 258 254 251 250 248 246 247 247 247 247 247 246 246 245 246 247
292 292 293 294 294 292 290 290 287 284 283 282 282 282 282 281 281 280 281 279 278 276 272 270 267 265 264 263 259 254 251 249 248 247 248 248 247 247 247 246 245 246 246 247
292 292 293 292 292 290 290 289 288 285 283 282 282 282 282 281 281 280 280 280 279 277 274 271 267 265 262 262 259 255 252 251 250 249 249 250 248 248 247 246 246 246 247 246
291 291 292 291 291 291 290 289 288 286 284 283 283 282 281 281 281 281 279 278 279 278 276 273 269 265 261 258 256 254 253 252 252 251 251 250 250 249 247 246 246 245 245 245
292 291 289 290 290 291 291 290 288 287 285 284 283 282 281 281 281 280 278 277 278 277 277 274 271 268 263 260 257 256 256 255 254 252 251 251 251 250 248 246 245 246 245 245
291 290 288 288 289 289 289 289 289 289 287 285 283 282 282 281 280 280 279 277 277 276 275 273 270 269 266 262 259 257 256 254 253 252 250 250 251 251 248 246 247 249 249 247
290 290 289 288 288 287 287 289 290 291 290 287 284 283 282 281 280 279 279 277 276 275 274 273 270 269 268 264 259 256 256 255 252 250 250 250 250 250 249 248 250 252 252 250
288 289 289 288 287 287 287 288 289 290 291 289 286 284 283 281 281 280 278 277 275 273 273 272 271 270 268 267 261 257 256 254 251 251 252 251 250 248 248 248 250 251 252 253
289 289 290 289 288 287 288 288 289 290 291 290 287 285 284 283 281 279 278 277 275 273 272 271 270 270 267 264 261 259 258 255 252 252 252 252 251 249 247 248 250 251 252 252
291 290 289 289 289 289 289 289 289 290 291 289 287 286 285 283 281 279 277 276 276 275 272 269 269 268 266 263 259 258 258 256 254 253 252 252 252 251 250 251 252 252 252 251
293 291 290 289 290 290 291 291 290 290 290 288 287 286 284 282 281 281 279 277 276 274 273 271 268 265 262 261 259 257 256 257 256 254 253 252 252 252 251 252 253 254 253 252
295 294 292 292 291 290 290 291 291 291 291 289 286 284 283 283 282 281 281 279 276 274 272 270 267 264 261 260 259 258 257 256 257 256 255 254 254 253 253 253 254 256 254 253
296 295 295 295 294 294 294 293 291 291 291 289 288 285 283 284 285 284 282 280 277 274 273 271 267 264 262 261 260 259 258 258 257 256 256 256 256 256 255 255 256 257 257 256
296 295 295 295 296 297 296 294 292 291 291 289 288 286 285 284 285 285 283 281 279 276 273 271 267 265 264 262 260 260 260 260 260 259 259 259 258 257 256 256 256 256 256 256
295 295 295 295 296 296 296 295 293 292 291 290 287 285 284 285 284 284 283 282 280 278 275 271 269 266 264 262 261 260 260 260 261 261 261 260 260 259 258 257 256 255 256 256
296 294 293 294 295 295 295 294 294 293 292 291 288 285 284 283 283 283 284 284 282 280 277 274 271 267 264 263 262 261 261 261 261 261 261 261 261 260 259 258 257 256 257 257
297 295 294 294 295 295 295 295 294 293 292 291 289 286 284 284 283 283 282 282 282 280 277 275 272 269 266 264 263 263 262 261 261 261 261 261 260 260 259 259 259 258 258 258
300 299 297 296 296 296 295 294 294 293 292 291 290 286 285 285 286 286 283 281 281 279 278 276 273 270 269 267 265 264 263 262 261 261 261 261 261 260 260 259 259 259 258 259
303 303 301 300 298 297 295 295 294 294 293 292 290 286 285 286 287 286 284 281 281 281 279 277 276 275 273 271 269 266 264 263 263 263 263 262 262 262 261 260 260 260 260 260
305 304 303 302 301 299 296 295 295 295 294 292 291 289 285 284 285 284 283 282 283 282 281 279 279 279 277 276 274 271 268 266 264 264 264 264 263 263 263 262 261 262 262 262
304 304 304 302 301 300 297 295 294 294 293 291 290 289 287 284 282 282 281 281 280 280 280 280 281 281 280 278 276 274 272 269 267 267 266 266 266 265 265 265 264 264 264 263
304 304 303 302 300 299 298 295 293 291 291 290 288 288 286 283 282 281 281 280 280 281 281 282 283 284 283 281 279 276 273 272 271 271 270 269 268 267 266 265 264 265 266 265
Height
5578 5575 5572 5571 5569 5566 5563 5561 5559 5558 5555 5554 5551 5550 5549 5547 5546 5544 5543 5542 5541 5541 5540 5539 5539 5540 5540 5541 5542 5543 5545 5547 5550 5553 5556 5559 5562 5565 5568 5571 5574 5577 5581 5584
5569 5566 5563 5561 5560 5557 5554 5552 5550 5548 5547 5545 5543 5541 5539 5538 5537 5535 5534 5533 5532 5531 5530 5529 5528 5529 5528 5529 5530 5531 5533 5535 5538 5541 5544 5547 5550 5553 5556 5558 5561 5565 5568 5572
5559 5557 5553 5552 5551 5548 5545 5543 5541 5539 5538 5535 5534 5532 5530 5528 5527 5525 5524 5522 5521 5520 5519 5519 5518 5518 5518 5518 5519 5520 5521 5523 5526 5529 5533 5535 5538 5541 5544 5546 5549 5552 5555 5559
5549 5547 5544 5545 5541 5539 5536 5534 5532 5530 5528 5526 5525 5523 5521 5519 5517 5515 5514 5513 5511 5510 5510 5509 5508 5507 5507 5507 5507 5509 5510 5513 5515 5518 5522 5524 5527 5530 5532 5535 5537 5540 5542 5546
5540 5537 5536 5536 5532 5529 5526 5525 5523 5521 5519 5517 5516 5515 5513 5510 5508 5506 5505 5503 5502 5501 5500 5499 5498 5498 5498 5497 5498 5498 5500 5502 5504 5508 5511 5514 5516 5519 5521 5524 5526 5527 5530 5533
5531 5528 5527 5527 5524 5519 5518 5516 5514 5511 5510 5508 5506 5506 5505 5501 5499 5497 5496 5494 5492 5491 5490 5489 5489 5488 5488 5488 5488 5488 5490 5492 5494 5497 5500 5503 5506 5508 5510 5513 5515 5516 5519 5521
5522 5519 5518 5518 5514 5511 5510 5508 5505 5502 5500 5498 5496 5495 5494 5492 5490 5488 5487 5485 5484 5482 5481 5480 5480 5479 5478 5478 5478 5480 5481 5483 5485 5487 5490 5493 5495 5498 5500 5502 5504 5506 5508 5510
5514 5511 5512 5508 5505 5503 5501 5497 5495 5493 5491 5489 5487 5486 5484 5482 5481 5480 5478 5477 5475 5474 5473 5472 5471 5470 5470 5470 5470 5471 5473 5475 5476 5478 5481 5483 5486 5488 5490 5492 5494 5496 5498 5500
5506 5505 5501 5498 5496 5494 5491 5489 5486 5484 5482 5480 5479 5477 5475 5474 5473 5471 5470 5469 5467 5466 5465 5464 5463 5462 5462 5462 5463 5463 5465 5466 5468 5470 5472 5474 5476 5478 5480 5482 5484 5486 5489 5491
5497 5495 5492 5490 5487 5485 5483 5480 5478 5476 5473 5471 5470 5468 5467 5465 5464 5463 5462 5461 5460 5459 5458 5457 5455 5455 5454 5454 5455 5456 5457 5458 5460 5462 5464 5466 5467 5469 5471 5473 5475 5477 5479 5481
5488 5486 5484 5482 5479 5477 5475 5472 5470 5467 5465 5463 5461 5460 5459 5457 5456 5455 5454 5453 5452 5451 5450 5449 5448 5448 5447 5447 5447 5448 5450 5451 5452 5453 5455 5457 5458 5459 5461 5463 5465 5467 5469 5471
5481 5478 5476 5474 5472 5469 5467 5465 5462 5460 5458 5455 5453 5452 5451 5449 5448 5447 5446 5445 5444 5443 5443 5442 5441 5440 5440 5439 5440 5441 5442 5443 5444 5445 5447 5449 5450 5451 5452 5454 5457 5458 5460 5462
5472 5470 5468 5466 5464 5461 5459 5457 5455 5453 5450 5448 5446 5444 5443 5442 5440 5439 5438 5437 5437 5436 5435 5435 5434 5433 5432 5432 5432 5433 5434 5435 5437 5438 5439 5440 5442 5443 5445 5446 5448 5449 5451 5453
5464 5462 5460 5458 5456 5454 5452 5450 5448 5445 5443 5441 5439 5437 5436 5434 5433 5432 5430 5429 5429 5428 5428 5427 5426 5426 5425 5425 5426 5426 5426 5427 5429 5430 5431 5433 5434 5435 5437 5438 5440 5441 5442 5444
5456 5454 5452 5450 5449 5447 5444 5442 5440 5438 5436 5434 5432 5430 5428 5427 5426 5425 5423 5422 5421 5421 5420 5419 5419 5419 5419 5419 5419 5419 5420 5420 5421 5423 5424 5425 5426 5427 5429 5430 5432 5433 5434 5435
5449 5447 5445 5443 5441 5439 5437 5435 5432 5430 5428 5426 5425 5423 5421 5420 5418 5417 5416 5415 5414 5414 5413 5412 5412 5412 5412 5412 5412 5413 5413 5414 5414 5415 5416 5417 5418 5420 5421 5422 5424 5425 5426 5427
5442 5440 5438 5436 5433 5431 5429 5427 5425 5423 5421 5419 5417 5416 5414 5413 5411 5410 5409 5408 5407 5406 5405 5405 5405 5404 5405 5405 5405 5406 5407 5407 5408 5408 5409 5410 5411 5412 5413 5414 5415 5416 5417 5418
5435 5433 5431 5428 5426 5424 5421 5419 5417 5415 5413 5412 5410 5408 5407 5405 5404 5403 5401 5400 5399 5399 5398 5398 5398 5397 5398 5398 5398 5399 5399 5400 5401 5401 5402 5402 5403 5404 5405 5406 5407 5408 5409 5410
5428 5426 5423 5421 5419 5416 5414 5412 5410 5408 5406 5404 5402 5401 5399 5398 5397 5395 5394 5393 5392 5391 5391 5390 5390 5390 5390 5390 5391 5391 5392 5392 5393 5393 5394 5395 5395 5396 5397 5398 5399 5400 5401 5402
5421 5418 5416 5414 5411 5409 5407 5404 5402 5400 5398 5396 5394 5393 5392 5390 5389 5388 5387 5386 5384 5383 5383 5383 5382 5382 5382 5383 5383 5383 5384 5385 5385 5385 5386 5387 5387 5388 5388 5389 5390 5391 5392 5393
5414 5411 5408 5406 5404 5401 5399 5396 5394 5392 5390 5388 5386 5385 5384 5383 5382 5380 5379 5378 5377 5376 5375 5375 5374 5374 5374 5374 5375 5375 5376 5376 5377 5377 5378 5378 5379 5379 5380 5380 5381 5382 5383 5384
5406 5403 5401 5398 5396 5393 5391 5388 5386 5384 5382 5380 5378 5377 5376 5375 5374 5373 5372 5371 5370 5368 5368 5367 5366 5366 5366 5366 5366 5367 5367 5367 5368 5368 5369 5369 5370 5370 5371 5371 5372 5373 5373 5374
5398 5396 5393 5390 5388 5385 5383 5380 5378 5376 5374 5372 5371 5369 5368 5367 5366 5366 5365 5364 5363 5362 5361 5360 5359 5359 5358 5358 5358 5358 5358 5359 5359 5359 5360 5360 5361 5361 5362 5362 5363 5363 5364 5365
5392 5389 5386 5383 5380 5378 5375 5373 5371 5369 5367 5365 5364 5362 5361 5361 5360 5359 5358 5357 5356 5355 5354 5353 5353 5352 5351 5351 5351 5351 5351 5351 5351 5351 5351 5352 5352 5352 5353 5353 5354 5354 5355 5355
5385 5382 5379 5376 5373 5370 5368 5366 5364 5362 5361 5359 5358 5356 5355 5354 5354 5353 5352 5351 5350 5349 5348 5347 5346 5346 5345 5344 5344 5343 5343 5343 5343 5343 5343 5343 5344 5344 5344 5344 5344 5345 5345 5345
5378 5375 5372 5369 5366 5364 5361 5360 5358 5356 5355 5353 5352 5350 5349 5348 5347 5346 5346 5345 5344 5343 5342 5342 5341 5340 5339 5338 5337 5336 5336 5335 5335 5335 5335 5335 5335 5335 5335 5335 5335 5336 5336 5336
5371 5368 5365 5362 5359 5357 5355 5353 5352 5350 5349 5347 5346 5345 5343 5342 5341 5341 5340 5339 5338 5337 5336 5336 5335 5333 5332 5331 5330 5329 5329 5328 5328 5327 5327 5327 5327 5327 5327 5327 5327 5327 5327 5327